Regional Weather Roundup
Issued by NWS Charleston, WV

Home | Current Version | Previous Version | Graphics & Text | Print | Product List | Glossary On
Versions: 1 2 3 4 5 6 7 8 9 10 11 12 13 14 15 16 17 18 19 20 21 22 23 24 25 26 27 28 29 30 31 32 33 34 35 36 37 38 39 40 41 42 43 44 45 46 47 48 49 50
000
ASUS41 KRLX 141810
RWRRLX
West Virginia Regional Weather Roundup
National Weather Service Charleston WV
100 PM EST THU DEC 14 2017

Note: "fair" indicates few or no clouds below 12,000 feet with no
significant weather and/or obstructions to visibility.

WVZ003-141900-
Northern Panhandle of West Virginia

CITY           SKY/WX    TMP DP  RH WIND       PRES   REMARKS
WHEELING       CLOUDY    25  17  72 N9        29.93F
$$

WVZ009-141900-
Northwest West Virginia

CITY           SKY/WX    TMP DP  RH WIND       PRES   REMARKS
PARKERSBURG    CLOUDY    29  18  63 VRB7      30.00R
$$

WVZ006-141900-
Western West Virginia

CITY           SKY/WX    TMP DP  RH WIND       PRES   REMARKS
HUNTINGTON     PTSUNNY   33  18  53 NW7       29.98R
$$

WVZ015-141900-
West Central West Virginia

CITY           SKY/WX    TMP DP  RH WIND       PRES   REMARKS
CHARLESTON     CLOUDY    34  20  56 NW7       29.95R
$$

WVZ022-031-141900-
North Central West Virginia

CITY           SKY/WX    TMP DP  RH WIND       PRES   REMARKS
CLARKSBURG     CLOUDY    30  22  72 NW7       29.91S
MORGANTOWN     FLURRIES  29  19  66 N7        29.91S
$$

WVZ025-035-042-045-141900-
Southern West Virginia

CITY           SKY/WX    TMP DP  RH WIND       PRES   REMARKS
BECKLEY        CLOUDY    29  19  66 NW8       29.85R
LOGAN          CLOUDY    32  21  64 CALM      29.92R
BLUEFIELD      CLOUDY    31  20  63 VRB6      29.84R
LEWISBURG      CLOUDY    31  20  62 W8        29.86R
$$

WVZ047-141900-
Northern Mountains of West Virginia

CITY           SKY/WX    TMP DP  RH WIND       PRES   REMARKS
ELKINS         CLOUDY    28  19  69 NW8       29.86R
$$

WVZ052-141900-
Eastern Panhandle of West Virginia

CITY           SKY/WX    TMP DP  RH WIND       PRES   REMARKS
MARTINSBURG    PTSUNNY   34  16  47 NW9G23    29.87S
PETERSBURG     CLOUDY    35  19  52 W16       29.88S
$$



USA.gov is the U.S. government's official web portal to all federal, state and local government web resources and services.